Location: Ferintosh
(52.7647°N, 112.9692°W)
Time: 15:03:49
(UTC+00:00)

Tiros 1 despin weight - Pass Details

Date: 25 May 2024
Orbit: 577 x 621 km, 48.2° (Epoch: 19 June)

Event Time Altitude Azimuth Distance (km) Brightness Sun altitude
Exits shadow 08:55:41 15° 242° (WSW) 1,624 ? -13.8°
Maximum altitude 08:59:04 45° 174° (S) 801 ? -13.6°
Drops below altitude 10° 09:03:11 10° 102° (ESE) 1,891 ? -13.4°
Sets 09:05:31 0° 96° (E) 2,788 ? -13.2°
